30.06.2024;16:00;6
30.06.2024;15:00;6
30.06.2024;14:00;7
30.06.2024;13:00;5
30.06.2024;12:00;7
30.06.2024;11:00;5
30.06.2024;10:00;8
30.06.2024;09:00;10
30.06.2024;08:00;32
30.06.2024;07:00;29
30.06.2024;06:00;27
30.06.2024;05:00;18
30.06.2024;04:00;22
30.06.2024;03:00;21
30.06.2024;02:00;24
30.06.2024;01:00;31
30.06.2024;00:00;26
29.06.2024;23:00;24
29.06.2024;22:00;37
29.06.2024;21:00;49
29.06.2024;20:00;54
29.06.2024;19:00;45
29.06.2024;18:00;42
29.06.2024;17:00;20
29.06.2024;16:00;24
29.06.2024;15:00;17
29.06.2024;14:00;25
29.06.2024;13:00;15
29.06.2024;12:00;19
29.06.2024;11:00;20
29.06.2024;10:00;29
29.06.2024;09:00;27
29.06.2024;08:00;16
29.06.2024;07:00;17
29.06.2024;06:00;14
29.06.2024;05:00;17
29.06.2024;04:00;19
29.06.2024;03:00;22
29.06.2024;02:00;30
29.06.2024;01:00;27
29.06.2024;00:00;23
28.06.2024;23:00;26
28.06.2024;22:00;21
28.06.2024;21:00;14
28.06.2024;20:00;15
28.06.2024;19:00;20
28.06.2024;18:00;10
28.06.2024;17:00;11
